Content
SEND FEEDBACK

Daily
Averages
Monthly
Summary
United States of America

ESTILL SPRINGS, TENNESSEE


Home > North America > United States > Tennessee
Elevation: 1053 feet     Latitude: 35 21N     Longitude: 086 12W

WEATHER
 
SELECT A DAY
Number of Records: 55,146;   Date Range: 9/2/10 - 8/27/14
 
SHARE

PRINT THIS DATA

[ ← Previous Day ]
WEATHER ALMANAC - JANUARY 31, 2013
[ Next Day → ]
[ °C ]   °F
Weather ElementAverageHighLow
Temperature35.9 °F42.8 °F (1:55 pm)30.2 °F (4:15 am)
Dewpoint24.2 °F32 °F (11:35 pm)21.2 °F (2:55 am)
Humidity63 %87 % (11:55 pm)49 % (1:55 pm)
Barometer30.05 in30.16 in (11:55 pm)29.92 in (12:35 am)
Wind Speed11.4 mph21.9 mph (11:35 pm)
Wind Gust26.5 mph (11:15 pm)
Weather ElementAverage
Visibility9.9 mi
Wind DirectionWSW (252 °)

Weather ElementTotal
Precipitation---
Heating Degree Days28.5 (Base 65)
Averaged from 69 records on January 31, 2013
WEATHER CONDITIONS BREAKOUT
WIND DIRECTION BREAKOUT
WEATHER BY HOUR - JANUARY 31, 2013
[ °C ]   °F
Local TimeTemperatureDewpointHumidityBarometerVisibilityWind DirectionWind SpeedGust SpeedPrecipitationEventsConditions
12:35 AM33.8 °F24.8 °F70 %29.92 in10.0 miWNW (290°)15.0 mphOvercast
12:55 AM33.8 °F23.0 °F65 %29.93 in10.0 miWNW (290°)17.3 mphOvercast
1:15 AM33.8 °F23.0 °F65 %29.94 in10.0 miWNW (300°)13.8 mphOvercast
1:35 AM33.8 °F23.0 °F65 %29.94 in10.0 miWNW (290°)11.5 mphOvercast
1:55 AM32.0 °F23.0 °F69 %29.95 in10.0 miWNW (290°)13.8 mphOvercast
2:15 AM32.0 °F24.8 °F75 %29.94 in10.0 miWNW (290°)15.0 mphOvercast
2:35 AM32.0 °F24.8 °F75 %29.95 in10.0 miWest (270°)10.4 mphOvercast
2:55 AM32.0 °F21.2 °F64 %29.96 in10.0 miWest (270°)15.0 mphOvercast
3:15 AM32.0 °F21.2 °F64 %29.95 in10.0 miWNW (300°)15.0 mphOvercast
3:35 AM32.0 °F21.2 °F64 %29.96 in10.0 miWest (280°)10.4 mphOvercast
3:55 AM32.0 °F21.2 °F64 %29.96 in10.0 miWNW (300°)9.2 mphOvercast
4:15 AM30.2 °F21.2 °F69 %29.97 in10.0 miWest (280°)10.4 mphOvercast
4:35 AM30.2 °F21.2 °F69 %29.96 in10.0 miWNW (290°)5.8 mphMostly Cloudy
4:55 AM30.2 °F21.2 °F69 %29.97 in10.0 miWest (280°)6.9 mphOvercast
5:15 AM30.2 °F21.2 °F69 %29.97 in10.0 miWest (260°)4.6 mphOvercast
5:35 AM30.2 °F23.0 °F75 %29.99 in10.0 miWest (260°)5.8 mphMostly Cloudy
5:55 AM30.2 °F23.0 °F75 %30.00 in10.0 miWest (260°)12.7 mphOvercast
6:15 AM30.2 °F21.2 °F69 %30.01 in10.0 miWest (270°)12.7 mphMostly Cloudy
6:35 AM30.2 °F21.2 °F69 %30.02 in10.0 miWest (260°)8.1 mphMostly Cloudy
6:55 AM30.2 °F21.2 °F69 %30.03 in10.0 miWSW (250°)11.5 mphMostly Cloudy
7:15 AM30.2 °F21.2 °F69 %30.04 in10.0 miSW (230°)11.5 mphOvercast
7:35 AM30.2 °F21.2 °F69 %30.06 in10.0 miWSW (250°)11.5 mphOvercast
7:55 AM30.2 °F21.2 °F69 %30.07 in10.0 miWSW (250°)13.8 mphOvercast
8:15 AM30.2 °F21.2 °F69 %30.08 in10.0 miWest (260°)11.5 mphOvercast
8:35 AM30.2 °F21.2 °F69 %30.09 in10.0 miWSW (250°)8.1 mphOvercast
8:55 AM30.2 °F21.2 °F69 %30.10 in10.0 miWSW (250°)11.5 mphOvercast
9:15 AM30.2 °F23.0 °F75 %30.11 in10.0 miWSW (250°)12.7 mphOvercast
9:35 AM33.8 °F24.8 °F70 %30.09 in10.0 miWSW (250°)11.5 mphOvercast
9:55 AM33.8 °F24.8 °F70 %30.10 in10.0 miWSW (240°)11.5 mphOvercast
10:15 AM33.8 °F24.8 °F70 %30.13 in10.0 miWSW (250°)13.8 mphMostly Cloudy
10:35 AM35.6 °F24.8 °F65 %30.12 in10.0 miWest (260°)11.5 mphScattered Clouds
10:55 AM35.6 °F23.0 °F60 %30.12 in10.0 miWest (260°)12.7 mphClear
11:15 AM37.4 °F24.8 °F60 %30.12 in4.0 miWest (260°)13.8 mphClear
11:35 AM37.4 °F24.8 °F60 %30.11 in10.0 miWSW (240°)10.4 mphClear
11:55 AM37.4 °F24.8 °F60 %30.10 in10.0 miWest (260°)13.8 mphClear
12:15 PM39.2 °F26.6 °F61 %30.09 in10.0 miSW (230°)8.1 mphClear
12:35 PM39.2 °F24.8 °F56 %30.09 in10.0 miSW (230°)10.4 mphClear
12:55 PM39.2 °F24.8 °F56 %30.09 in10.0 miWest (280°)12.7 mphClear
1:15 PM39.2 °F24.8 °F56 %30.09 in10.0 miWest (260°)13.8 mphClear
1:35 PM41.0 °F24.8 °F53 %30.08 in10.0 miWSW (240°)12.7 mphClear
1:55 PM42.8 °F24.8 °F49 %30.07 in10.0 miWSW (240°)12.7 mphClear
2:15 PM42.8 °F24.8 °F49 %30.07 in10.0 miWSW (240°)11.5 mphClear
3:15 PM42.8 °F24.8 °F49 %30.06 in10.0 miSW (230°)9.2 mphClear
3:35 PM42.8 °F24.8 °F49 %30.06 in10.0 miWSW (240°)12.7 mphClear
3:55 PM42.8 °F24.8 °F49 %30.06 in10.0 miSW (220°)10.4 mphClear
4:15 PM42.8 °F24.8 °F49 %30.05 in10.0 miSW (220°)13.8 mphClear
4:35 PM42.8 °F24.8 °F49 %30.05 in10.0 miSW (220°)9.2 mphClear
4:55 PM41.0 °F24.8 °F53 %30.05 in10.0 miSSW (210°)9.2 mphClear
5:15 PM39.2 °F24.8 °F56 %30.05 in10.0 miSW (220°)10.4 mphClear
5:35 PM39.2 °F24.8 °F56 %30.06 in10.0 miSW (230°)6.9 mphClear
5:55 PM37.4 °F24.8 °F60 %30.07 in10.0 miWSW (240°)4.6 mphClear
6:15 PM37.4 °F24.8 °F60 %30.07 in10.0 miSW (220°)4.6 mphClear
6:35 PM37.4 °F24.8 °F60 %30.07 in10.0 miSW (220°)4.6 mphClear
6:55 PM37.4 °F24.8 °F60 %30.07 in10.0 miSSW (210°)6.9 mphPartly Cloudy
7:15 PM37.4 °F24.8 °F60 %30.07 in10.0 miSSW (210°)6.9 mphPartly Cloudy
7:35 PM37.4 °F24.8 °F60 %30.06 in10.0 miSSW (210°)9.2 mphPartly Cloudy
7:55 PM37.4 °F24.8 °F60 %30.06 in10.0 miSSW (210°)9.2 mphClear
8:15 PM39.2 °F24.8 °F56 %30.06 in10.0 miSW (220°)9.2 mphClear
8:35 PM39.2 °F24.8 °F56 %30.07 in10.0 miSW (220°)11.5 mphPartly Cloudy
8:55 PM39.2 °F24.8 °F56 %30.05 in10.0 miSSW (210°)12.7 mphScattered Clouds
9:15 PM39.2 °F26.6 °F61 %30.05 in10.0 miSW (220°)13.8 mphPartly Cloudy
9:35 PM39.2 °F26.6 °F61 %30.06 in10.0 miSW (220°)16.1 mphClear
9:55 PM39.2 °F26.6 °F61 %30.06 in10.0 miSW (230°)12.7 mphMostly Cloudy
10:15 PM39.2 °F26.6 °F61 %30.07 in10.0 miWSW (240°)12.7 mphOvercast
10:35 PM41.0 °F26.6 °F57 %30.09 in10.0 miWest (270°)9.2 mphOvercast
10:55 PM41.0 °F28.4 °F61 %30.09 in10.0 miWest (260°)11.5 mphOvercast
11:15 PM41.0 °F30.2 °F65 %30.10 in10.0 miWNW (300°)20.7 mph26.5 mphOvercast
11:35 PM39.2 °F32.0 °F75 %30.13 in10.0 miNW (310°)21.9 mphOvercast
11:55 PM35.6 °F32.0 °F87 %30.16 in7.0 miNW (320°)19.6 mphOvercast
Hourly data recorded from KTHA, located miles away from Estill Springs, Tennessee







STORIES FROM OUR PARTNERS